Location: Newark
(51.2625°N, 13.3939°E)
Time: 15:06:00
(UTC+00:00)

A-11 Canister half - All Passes

Search period start: 22 November 2019 00:00
Search period end: 02 December 2019 00:00
Orbit: 1514 x 1685 km, 47.2° (Epoch: 21 November)

Date Brightness Start Highest point End Pass type
(mag) Time Alt. Az. Time Alt. Az. Time Alt. Az.
22 Nov - 14:55:43 10° S 15:03:46 29° SE 15:11:57 10° E daylight
22 Nov - 16:57:35 10° SW 17:07:22 58° SSE 17:17:16 10° E visible
22 Nov - 19:01:51 10° W 19:11:57 72° S 19:22:01 10° ESE visible
22 Nov - 21:06:41 10° W 21:16:25 53° SSW 21:26:00 10° SE visible
22 Nov - 23:12:22 10° W 23:19:44 24° SW 23:27:01 10° S night (unlit)
23 Nov - 14:33:06 10° S 14:40:56 27° SE 14:48:54 10° E daylight
23 Nov - 16:34:44 10° SW 16:44:27 57° SSE 16:54:19 10° E visible
23 Nov - 18:38:55 10° W 18:49:01 72° S 18:59:06 10° E visible
23 Nov - 20:43:43 10° W 20:53:30 55° SSW 21:03:10 10° SE visible
23 Nov - 22:49:17 10° W 22:56:56 25° SW 23:04:27 10° S visible
24 Nov - 14:10:29 10° S 14:18:07 26° SE 14:25:51 10° E daylight
24 Nov - 16:11:53 10° SW 16:21:33 55° SSE 16:31:23 10° E visible
24 Nov - 18:16:00 10° W 18:26:04 72° S 18:36:10 10° E visible
24 Nov - 20:20:46 10° W 20:30:36 56° SSW 20:40:19 10° SE visible
24 Nov - 22:26:14 10° W 22:34:06 27° SW 22:41:51 10° S visible
25 Nov - 13:47:55 10° S 13:55:17 24° SE 14:02:47 10° E daylight
25 Nov - 15:49:03 10° SW 15:58:39 54° SSE 16:08:25 10° E visible
25 Nov - 17:53:04 10° W 18:03:08 72° S 18:13:14 10° E visible
25 Nov - 19:57:49 10° W 20:07:41 58° SSW 20:17:28 10° SE visible
25 Nov - 22:03:11 10° W 22:11:16 28° SW 22:19:14 10° S visible
26 Nov - 13:25:22 10° S 13:32:28 23° SE 13:39:41 10° E daylight
26 Nov - 15:26:14 10° SW 15:35:45 52° SSE 15:45:28 10° E visible
26 Nov - 17:30:09 10° WSW 17:40:11 72° S 17:50:18 10° E visible
26 Nov - 19:34:53 10° W 19:44:46 59° SSW 19:54:36 10° SE visible
26 Nov - 21:40:10 10° W 21:48:25 30° SW 21:56:36 10° SSE visible
27 Nov - 13:02:52 10° S 13:09:40 21° SE 13:16:34 10° E daylight
27 Nov - 15:03:25 10° SW 15:12:52 50° SSE 15:22:31 10° E daylight
27 Nov - 17:07:13 10° WSW 17:17:14 71° S 17:27:22 10° E visible
27 Nov - 19:11:56 10° W 19:21:51 61° SSW 19:31:44 10° ESE visible
27 Nov - 21:17:08 10° W 21:25:35 31° SW 21:33:56 10° SSE visible
28 Nov - 12:40:22 10° S 12:46:51 20° SE 12:53:26 10° E daylight
28 Nov - 14:40:36 10° SW 14:49:58 49° SSE 14:59:33 10° E daylight
28 Nov - 16:44:19 10° WSW 16:54:18 71° S 17:04:25 10° E visible
28 Nov - 18:49:00 10° W 18:58:56 62° SSW 19:08:51 10° ESE visible
28 Nov - 20:54:08 10° W 21:02:44 33° SW 21:11:15 10° SSE visible
29 Nov - 12:17:56 10° SSE 12:24:04 19° SE 12:30:17 10° E daylight
29 Nov - 14:17:49 10° SW 14:27:05 47° SSE 14:36:34 10° E daylight
29 Nov - 16:21:25 10° WSW 16:31:22 70° S 16:41:29 10° E visible
29 Nov - 18:26:04 10° W 18:36:01 63° SSW 18:45:59 10° ESE visible
29 Nov - 20:31:08 10° W 20:39:53 34° SW 20:48:34 10° SSE visible
30 Nov - 11:55:33 10° SSE 12:01:16 17° SE 12:07:04 10° E daylight
30 Nov - 13:55:02 10° SW 14:04:12 45° SSE 14:13:36 10° E daylight
30 Nov - 15:58:31 10° WSW 16:08:26 70° S 16:18:32 10° E visible
30 Nov - 18:03:08 10° W 18:13:05 64° SSW 18:23:05 10° ESE visible
30 Nov - 20:08:09 10° W 20:17:01 36° SW 20:25:51 10° SSE visible
30 Nov - 22:17:35 10° WSW 22:19:33 11° WSW 22:21:31 10° SW visible
01 Dec - 11:33:13 10° SSE 11:38:29 16° SE 11:43:49 10° E daylight
01 Dec - 13:32:16 10° SW 13:41:20 44° SSE 13:50:39 10° E daylight
01 Dec - 15:35:37 10° WSW 15:45:30 69° S 15:55:36 10° E visible
01 Dec - 17:40:13 10° W 17:50:10 65° SSW 18:00:11 10° ESE visible
01 Dec - 19:45:11 10° W 19:54:09 38° SW 20:03:06 10° SSE visible
01 Dec - 21:53:35 10° WSW 21:56:47 12° WSW 21:59:59 10° SW visible
